Location: Hope
(40.9110°N, 74.9680°W)
Time: 14:40:04
(UTC-05:00)

N. Korean satellite - Pass Details

Date: 31 January 2019
Orbit: 457 x 510 km, 97.2° (Epoch: 17 February)

Event Time Altitude Azimuth Distance (km) Brightness Sun altitude
Rises 06:19:32 0° 10° (N) 2,585 10.2 -10.1°
Reaches altitude 10° 06:21:38 10° 9° (N) 1,689 9.3 -9.8°
Maximum altitude 06:25:16 76° 284° (WNW) 503 6.5 -9.1°
Drops below altitude 10° 06:28:47 10° 198° (SSW) 1,644 9.2 -8.4°
Sets 06:30:49 0° 197° (SSW) 2,508 10.2 -8.1°
